TimeEST,TemperatureF,Dew PointF,Humidity,Sea Level PressureIn,VisibilityMPH,Wind Direction,Wind SpeedMPH,Gust SpeedMPH,PrecipitationIn,Events,Conditions,WindDirDegrees,DateUTC
12:53 AM,25.0,19.0,78,30.24,9.0,Calm,Calm,-,N/A,,Clear,0,2013-12-28 05:53:00
1:53 AM,24.1,19.0,81,30.22,8.0,Calm,Calm,-,N/A,,Clear,0,2013-12-28 06:53:00
2:53 AM,23.0,19.0,85,30.22,9.0,Calm,Calm,-,N/A,,Clear,0,2013-12-28 07:53:00
3:53 AM,21.9,18.0,85,30.21,8.0,Calm,Calm,-,N/A,,Clear,0,2013-12-28 08:53:00
4:53 AM,21.9,18.0,85,30.19,7.0,Calm,Calm,-,N/A,,Clear,0,2013-12-28 09:53:00
5:53 AM,21.9,18.0,85,30.17,9.0,Calm,Calm,-,N/A,,Clear,0,2013-12-28 10:53:00
6:53 AM,21.9,18.0,85,30.16,8.0,Calm,Calm,-,N/A,,Clear,0,2013-12-28 11:53:00
7:53 AM,25.0,21.0,85,30.16,7.0,Calm,Calm,-,N/A,,Mostly Cloudy,0,2013-12-28 12:53:00
8:53 AM,32.0,26.1,79,30.16,9.0,Calm,Calm,-,N/A,,Overcast,0,2013-12-28 13:53:00
9:53 AM,37.0,27.0,67,30.16,10.0,Calm,Calm,-,N/A,,Mostly Cloudy,0,2013-12-28 14:53:00
10:53 AM,41.0,23.0,49,30.14,10.0,SW,8.1,-,N/A,,Overcast,230,2013-12-28 15:53:00
11:53 AM,44.1,23.0,43,30.10,10.0,SSW,13.8,17.3,N/A,,Partly Cloudy,210,2013-12-28 16:53:00
12:53 PM,46.9,24.1,41,30.06,10.0,SW,10.4,-,N/A,,Clear,230,2013-12-28 17:53:00
1:53 PM,48.9,25.0,39,30.04,10.0,SSW,4.6,-,N/A,,Clear,200,2013-12-28 18:53:00
2:53 PM,50.0,25.0,38,30.04,10.0,SW,6.9,-,N/A,,Clear,220,2013-12-28 19:53:00
3:53 PM,48.9,26.1,41,30.04,10.0,WSW,6.9,-,N/A,,Clear,240,2013-12-28 20:53:00
4:53 PM,42.1,26.1,53,30.06,10.0,Calm,Calm,-,N/A,,Clear,0,2013-12-28 21:53:00
5:53 PM,34.0,26.1,73,30.08,10.0,Calm,Calm,-,N/A,,Clear,0,2013-12-28 22:53:00
6:53 PM,33.1,25.0,72,30.09,10.0,Calm,Calm,-,N/A,,Clear,0,2013-12-28 23:53:00
7:53 PM,30.9,25.0,79,30.08,10.0,Calm,Calm,-,N/A,,Clear,0,2013-12-29 00:53:00
8:53 PM,30.0,25.0,82,30.08,10.0,Calm,Calm,-,N/A,,Clear,0,2013-12-29 01:53:00
9:53 PM,30.0,26.1,85,30.07,10.0,Calm,Calm,-,N/A,,Clear,0,2013-12-29 02:53:00
10:53 PM,28.0,24.1,85,30.06,10.0,Calm,Calm,-,N/A,,Clear,0,2013-12-29 03:53:00
11:53 PM,28.9,25.0,85,30.04,10.0,Calm,Calm,-,N/A,,Clear,0,2013-12-29 04:53:00